Find Starlink 2314

NORAD ID: 47788 Int'l Des: 2021-018 Owner: SPXS Country: US Constellation: starlink operational
LEOCIRCULAR

現在のビュー

3D地球を読み込み中...

About Starlink 2314

Starlink 2314 (NORAD 47788) is a starlink constellation satellite (v1.0) launched Mar 11, 2021 by SPXS of US. It operates in LEO, CIRCULAR orbit with a mass of 260.00 kg.

次回通過

Passes for default location (London). Set your location on the main map for personalized predictions.

高度履歴

Loading altitude history...

軌道要素

1 47788U 21018B 26265.87991091 .00047617 00000-0 85846-3 0 9990
2 47788 53.1532 10.4244 0002281 351.2054 8.8915 15.49325104307446
Epoch: Sep 22, 2026 • Age: 10 hours

現在のステータス

高度 436.8 km
遠地点 / 近地点 N/A
速度 7.65 km/s
衛星直下点 -52.62°S, 150.39°E
打ち上げ日 Mar 11, 2021
運用期間 5.5 years
タイプ internet

技術仕様

分類 Payload
質量 260.00 kg
乾燥質量 248.00 kg
長さ 0.20 m
スパン 9.00 m
形状 ? Box + pan
製造者 SPXS
バスタイプ Starlink
フェーズステータス In Orbit
所有者/国 SPXS/US

Most Searched